• în România
  • Lista ţărilor
  • Pe 7 zile
  • Temperatura apei
  • Hartă satelitară
  • Meteo pe hartă
  • Widget-uri
  • user-avatar
    Intrare

    Meteo pe oră la Batina

    Astăzi, 28 Aprilie, Vineri

    Timp Temperatura Precipitaţii Vânt Presiune Umiditate
    00:00 +14°C° 0 mm 3 m/s 667 mmHg 60%
    01:00 +14°C° 0 mm 3 m/s 667 mmHg 65%
    02:00 +13°C° 0 mm 3 m/s 666 mmHg 71%
    03:00 +12°C° 0 mm 3 m/s 666 mmHg 76%
    04:00 +12°C° 0 mm 3 m/s 666 mmHg 76%
    05:00 +13°C° 0 mm 3 m/s 666 mmHg 77%
    06:00 +13°C° 0 mm 4 m/s 666 mmHg 77%
    07:00 +14°C° 0 mm 4 m/s 667 mmHg 69%
    08:00 +17°C° 0 mm 3 m/s 667 mmHg 61%
    09:00 +19°C° 0 mm 3 m/s 668 mmHg 53%
    10:00 +21°C° 0 mm 3 m/s 668 mmHg 46%
    11:00 +24°C° 0 mm 3 m/s 668 mmHg 39%
    12:00 +25°C° 0 mm 3 m/s 668 mmHg 32%
    13:00 +25°C° 0 mm 4 m/s 668 mmHg 33%
    14:00 +25°C° 0 mm 4 m/s 667 mmHg 34%
    15:00 +25°C° 0 mm 4 m/s 667 mmHg 35%
    16:00 +21°C° 0 mm 4 m/s 667 mmHg 46%
    17:00 +19°C° 0 mm 4 m/s 666 mmHg 57%
    18:00 +15°C° 0 mm 4 m/s 666 mmHg 68%
    19:00 +14°C° 0,1 mm 4 m/s 666 mmHg 72%
    20:00 +13°C° 0,1 mm 5 m/s 667 mmHg 76%
    21:00 +12°C° 0,1 mm 5 m/s 667 mmHg 81%
    22:00 +11°C° 0,2 mm 4 m/s 667 mmHg 81%
    23:00 +11°C° 0,2 mm 4 m/s 667 mmHg 82%

    Mâine, 29 Aprilie, Sâmbătă

    Timp Temperatura Precipitaţii Vânt Presiune Umiditate
    00:00 +11°C° 0,2 mm 3 m/s 668 mmHg 83%
    01:00 +10°C° 0 mm 3 m/s 667 mmHg 83%
    02:00 +10°C° 0 mm 3 m/s 667 mmHg 83%
    03:00 +10°C° 0 mm 3 m/s 667 mmHg 83%
    04:00 +10°C° 0 mm 2 m/s 667 mmHg 81%
    05:00 +12°C° 0 mm 2 m/s 668 mmHg 79%
    06:00 +12°C° 0 mm 1 m/s 668 mmHg 77%
    07:00 +14°C° 0 mm 1 m/s 668 mmHg 68%
    08:00 +16°C° 0 mm 2 m/s 669 mmHg 60%
    09:00 +18°C° 0 mm 2 m/s 670 mmHg 52%
    10:00 +19°C° 0,1 mm 2 m/s 670 mmHg 46%
    11:00 +21°C° 0,1 mm 3 m/s 670 mmHg 41%
    12:00 +22°C° 0,1 mm 4 m/s 670 mmHg 35%
    13:00 +22°C° 0,2 mm 4 m/s 670 mmHg 35%
    14:00 +22°C° 0,2 mm 4 m/s 670 mmHg 34%
    15:00 +22°C° 0,2 mm 5 m/s 669 mmHg 34%
    16:00 +21°C° 0,1 mm 4 m/s 669 mmHg 40%
    17:00 +20°C° 0,1 mm 3 m/s 669 mmHg 46%
    18:00 +18°C° 0,1 mm 2 m/s 668 mmHg 52%
    19:00 +17°C° 0,1 mm 2 m/s 668 mmHg 58%
    20:00 +16°C° 0,1 mm 1 m/s 669 mmHg 65%
    21:00 +14°C° 0,1 mm 1 m/s 669 mmHg 71%
    22:00 +14°C° 0,1 mm 1 m/s 668 mmHg 72%
    23:00 +13°C° 0,1 mm 1 m/s 668 mmHg 73%

    Poimâine, 30 Aprilie, Duminică

    Timp Temperatura Precipitaţii Vânt Presiune Umiditate
    00:00 +13°C° 0,1 mm 1 m/s 668 mmHg 74%
    01:00 +13°C° 0,1 mm 1 m/s 668 mmHg 74%
    02:00 +12°C° 0,1 mm 1 m/s 668 mmHg 74%
    03:00 +12°C° 0,1 mm 1 m/s 668 mmHg 73%
    04:00 +13°C° 0,1 mm 1 m/s 668 mmHg 71%
    05:00 +14°C° 0,1 mm 1 m/s 668 mmHg 68%
    06:00 +15°C° 0,1 mm 1 m/s 669 mmHg 66%
    07:00 +16°C° 0,1 mm 2 m/s 669 mmHg 61%
    08:00 +17°C° 0,1 mm 2 m/s 670 mmHg 57%
    09:00 +19°C° 0,1 mm 3 m/s 670 mmHg 53%
    10:00 +20°C° 0,4 mm 3 m/s 670 mmHg 49%
    11:00 +21°C° 0,4 mm 3 m/s 670 mmHg 45%
    12:00 +22°C° 0,4 mm 3 m/s 670 mmHg 41%
    13:00 +21°C° 1,5 mm 3 m/s 670 mmHg 44%
    14:00 +21°C° 1,5 mm 3 m/s 670 mmHg 46%
    15:00 +21°C° 1,5 mm 3 m/s 669 mmHg 48%
    16:00 +20°C° 0,9 mm 3 m/s 669 mmHg 54%
    17:00 +18°C° 0,9 mm 2 m/s 669 mmHg 61%
    18:00 +17°C° 0,9 mm 2 m/s 669 mmHg 67%
    19:00 +16°C° 0,1 mm 2 m/s 669 mmHg 72%
    20:00 +15°C° 0,1 mm 2 m/s 669 mmHg 77%
    21:00 +14°C° 0,1 mm 2 m/s 670 mmHg 81%
    22:00 +13°C° 0 mm 2 m/s 670 mmHg 83%
    23:00 +13°C° 0 mm 2 m/s 669 mmHg 84%

    1 Mai, Luni

    Timp Temperatura Precipitaţii Vânt Presiune Umiditate
    00:00 +12°C° 0 mm 2 m/s 669 mmHg 85%
    01:00 +12°C° 0 mm 1 m/s 669 mmHg 86%
    02:00 +12°C° 0 mm 1 m/s 669 mmHg 86%
    03:00 +11°C° 0 mm 1 m/s 669 mmHg 86%
    04:00 +12°C° 0 mm 1 m/s 669 mmHg 84%
    05:00 +12°C° 0 mm 1 m/s 670 mmHg 83%
    06:00 +13°C° 0 mm 1 m/s 670 mmHg 81%
    07:00 +14°C° 0 mm 2 m/s 671 mmHg 74%
    08:00 +16°C° 0 mm 2 m/s 672 mmHg 67%
    09:00 +17°C° 0 mm 2 m/s 673 mmHg 59%
    10:00 +18°C° 0,1 mm 2 m/s 673 mmHg 54%
    11:00 +19°C° 0,1 mm 2 m/s 673 mmHg 49%
    12:00 +20°C° 0,1 mm 2 m/s 673 mmHg 44%
    13:00 +21°C° 0,1 mm 2 m/s 673 mmHg 41%
    14:00 +21°C° 0,1 mm 2 m/s 673 mmHg 38%
    15:00 +21°C° 0,1 mm 2 m/s 673 mmHg 35%
    16:00 +20°C° 0 mm 2 m/s 672 mmHg 39%
    17:00 +19°C° 0 mm 3 m/s 672 mmHg 44%
    18:00 +18°C° 0 mm 3 m/s 672 mmHg 48%
    19:00 +16°C° 0 mm 3 m/s 672 mmHg 56%
    20:00 +14°C° 0 mm 3 m/s 672 mmHg 65%
    21:00 +13°C° 0 mm 2 m/s 672 mmHg 74%
    22:00 +12°C° 0 mm 2 m/s 672 mmHg 77%
    23:00 +12°C° 0 mm 2 m/s 672 mmHg 80%

    2 Mai, Marţi

    Timp Temperatura Precipitaţii Vânt Presiune Umiditate
    00:00 +10°C° 0 mm 2 m/s 671 mmHg 83%
    01:00 +10°C° 0 mm 2 m/s 671 mmHg 84%
    02:00 +10°C° 0 mm 1 m/s 671 mmHg 84%
    03:00 +10°C° 0 mm 1 m/s 671 mmHg 84%
    04:00 +11°C° 0 mm 1 m/s 671 mmHg 81%
    05:00 +12°C° 0 mm 1 m/s 672 mmHg 77%
    06:00 +12°C° 0 mm 1 m/s 672 mmHg 74%
    07:00 +14°C° 0 mm 1 m/s 673 mmHg 66%
    08:00 +16°C° 0 mm 2 m/s 673 mmHg 57%
    09:00 +18°C° 0 mm 3 m/s 674 mmHg 49%
    10:00 +19°C° 0 mm 3 m/s 674 mmHg 46%
    11:00 +20°C° 0 mm 3 m/s 674 mmHg 43%
    12:00 +21°C° 0 mm 4 m/s 673 mmHg 40%
    13:00 +21°C° 0,1 mm 4 m/s 673 mmHg 40%
    14:00 +21°C° 0,1 mm 4 m/s 673 mmHg 40%
    15:00 +21°C° 0,1 mm 4 m/s 672 mmHg 40%
    16:00 +20°C° 0,3 mm 3 m/s 672 mmHg 45%
    17:00 +19°C° 0,3 mm 2 m/s 672 mmHg 49%
    18:00 +18°C° 0,3 mm 2 m/s 671 mmHg 53%
    19:00 +17°C° 0 mm 2 m/s 671 mmHg 57%
    20:00 +16°C° 0 mm 1 m/s 671 mmHg 62%
    21:00 +14°C° 0 mm 1 m/s 671 mmHg 66%
    22:00 +14°C° 0 mm 1 m/s 671 mmHg 67%
    23:00 +13°C° 0 mm 1 m/s 671 mmHg 68%

    3 Mai, Miercuri

    Timp Temperatura Precipitaţii Vânt Presiune Umiditate
    00:00 +13°C° 0 mm 1 m/s 670 mmHg 69%
    01:00 +13°C° 0 mm 1 m/s 670 mmHg 68%
    02:00 +13°C° 0 mm 1 m/s 670 mmHg 68%
    03:00 +13°C° 0 mm 2 m/s 670 mmHg 68%
    04:00 +13°C° 0 mm 2 m/s 670 mmHg 65%
    05:00 +14°C° 0 mm 2 m/s 670 mmHg 63%
    06:00 +15°C° 0 mm 2 m/s 671 mmHg 60%
    07:00 +17°C° 0 mm 3 m/s 671 mmHg 53%
    08:00 +19°C° 0 mm 5 m/s 672 mmHg 46%
    09:00 +21°C° 0 mm 6 m/s 672 mmHg 38%
    10:00 +22°C° 0 mm 6 m/s 672 mmHg 36%
    11:00 +23°C° 0 mm 6 m/s 672 mmHg 33%
    12:00 +24°C° 0 mm 6 m/s 672 mmHg 31%
    13:00 +24°C° 0 mm 6 m/s 672 mmHg 30%
    14:00 +25°C° 0 mm 5 m/s 671 mmHg 30%
    15:00 +26°C° 0 mm 5 m/s 671 mmHg 29%
    16:00 +23°C° 0 mm 4 m/s 671 mmHg 34%
    17:00 +22°C° 0 mm 3 m/s 670 mmHg 39%
    18:00 +21°C° 0 mm 3 m/s 670 mmHg 44%
    19:00 +19°C° 0,1 mm 2 m/s 670 mmHg 50%
    20:00 +18°C° 0,1 mm 2 m/s 670 mmHg 57%
    21:00 +16°C° 0,1 mm 1 m/s 670 mmHg 63%
    22:00 +16°C° 0 mm 1 m/s 669 mmHg 64%
    23:00 +15°C° 0 mm 1 m/s 669 mmHg 66%
    Arată mai mult